| time (UTC) | temp C | wind direction | speed KPH | gust KPH | rain 1hr cm | rain 24hr cm | rain mn cm | humidity % | barometer mb |
| 20260506123114 | 13 | 68 | 4.8 | 12.9 | 0.00 | 0.00 | 0.00 | 40 | 1012.7 |
| 20260506121611 | 13 | 36 | 4.8 | 19.3 | 0.00 | 0.00 | 0.00 | 42 | 1012.5 |
| 20260506120058 | 13 | 5 | 3.2 | 12.9 | 0.00 | 0.00 | 0.00 | 44 | 1012.6 |
| 20260506114557 | 13 | 114 | 4.8 | 14.5 | 0.00 | 0.00 | 0.00 | 41 | 1012.5 |
| 20260506113054 | 13 | 205 | 0.0 | 12.9 | 0.00 | 0.00 | 0.00 | 39 | 1012.8 |
| 20260506111555 | 13 | 53 | 4.8 | 12.9 | 0.00 | 0.00 | 0.00 | 43 | 1012.8 |
| 20260506110104 | 13 | 29 | 4.8 | 12.9 | 0.00 | 0.00 | 0.00 | 38 | 1012.8 |
| 20260506104606 | 12 | 341 | 1.6 | 9.7 | 0.00 | 0.00 | 0.00 | 44 | 1012.8 |
| 20260506103103 | 11 | 70 | 1.6 | 11.3 | 0.00 | 0.00 | 0.00 | 45 | 1013.0 |
| 20260506101618 | 11 | 355 | 3.2 | 14.5 | 0.00 | 0.00 | 0.00 | 45 | 1013.2 |
| 20260506100058 | 11 | 123 | 4.8 | 12.9 | 0.00 | 0.00 | 0.00 | 42 | 1013.2 |
| 20260506094559 | 11 | 304 | 3.2 | 8.0 | 0.00 | 0.00 | 0.00 | 44 | 1013.1 |
| 20260506093100 | 11 | 142 | 1.6 | 14.5 | 0.00 | 0.00 | 0.00 | 44 | 1013.3 |
| 20260506091556 | 10 | 311 | 3.2 | 9.7 | 0.00 | 0.00 | 0.00 | 45 | 1013.3 |
| 20260506090111 | 11 | 325 | 4.8 | 12.9 | 0.00 | 0.00 | 0.00 | 48 | 1013.3 |
| 20260506084632 | 11 | 329 | 1.6 | 9.7 | 0.00 | 0.00 | 0.00 | 48 | 1013.3 |
| 20260506083058 | 10 | 77 | 3.2 | 8.0 | 0.00 | 0.00 | 0.00 | 49 | 1013.4 |
| 20260506081611 | 10 | 271 | 4.8 | 12.9 | 0.00 | 0.00 | 0.00 | 51 | 1013.4 |
| 20260506073056 | 9 | 98 | 1.6 | 9.7 | 0.00 | 0.00 | 0.00 | 56 | 1013.2 |
| 20260506071559 | 9 | 5 | 4.8 | 9.7 | 0.00 | 0.00 | 0.00 | 60 | 1013.2 |
| 20260506061556 | 8 | 224 | 3.2 | 9.7 | 0.00 | 0.00 | 0.00 | 60 | 1012.8 |
| 20260506050117 | 6 | 20 | 1.6 | 4.8 | 0.00 | 0.00 | 0.00 | 67 | 1013.0 |
| 20260506044554 | 6 | 328 | 0.0 | 3.2 | 0.00 | 0.00 | 0.00 | 70 | 1012.8 |
| 20260506043059 | 4 | 0 | 0.0 | 1.6 | 0.00 | 0.00 | 0.00 | 75 | 1012.8 |
| 20260506041602 | 3 | 275 | 0.0 | 3.2 | 0.00 | 0.00 | 0.00 | 78 | 1012.6 |
| 20260506040057 | 2 | 275 | 0.0 | 3.2 | 0.00 | 0.00 | 0.00 | 81 | 1012.3 |
| 20260506034558 | 2 | 275 | 0.0 | 1.6 | 0.00 | 0.00 | 0.00 | 85 | 1012.2 |
| 20260506033054 | 1 | 0 | 0.0 | 0.0 | 0.00 | 0.00 | 0.00 | 89 | 1012.1 |
| 20260506031556 | 0 | 0 | 0.0 | 0.0 | 0.00 | 0.00 | 0.00 | 89 | 1011.8 |
| 20260506030058 | 0 | 0 | 0.0 | 0.0 | 0.00 | 0.00 | 0.00 | 88 | 1011.6 |
| 20260506024608 | 0 | 0 | 0.0 | 1.6 | 0.00 | 0.00 | 0.00 | 88 | 1011.5 |
| 20260506023108 | 0 | 0 | 0.0 | 0.0 | 0.00 | 0.00 | 0.00 | 88 | 1011.5 |
| 20260506021556 | 0 | 0 | 0.0 | 0.0 | 0.00 | 0.00 | 0.00 | 86 | 1011.3 |
| 20260506020057 | 0 | 0 | 0.0 | 0.0 | 0.00 | 0.00 | 0.00 | 87 | 1011.1 |
| 20260506014557 | 0 | 0 | 0.0 | 0.0 | 0.00 | 0.00 | 0.00 | 84 | 1011.0 |
| 20260506013059 | 1 | 0 | 0.0 | 0.0 | 0.00 | 0.00 | 0.00 | 84 | 1010.9 |
| 20260506011606 | 1 | 0 | 0.0 | 0.0 | 0.00 | 0.00 | 0.00 | 82 | 1010.9 |
| 20260506010055 | 1 | 0 | 0.0 | 0.0 | 0.00 | 0.00 | 0.00 | 81 | 1010.7 |
| 20260506004600 | 2 | 0 | 0.0 | 0.0 | 0.00 | 0.00 | 0.00 | 79 | 1010.4 |
| 20260506003054 | 2 | 0 | 0.0 | 0.0 | 0.00 | 0.00 | 0.00 | 78 | 1010.3 |
| 20260506001559 | 3 | 0 | 0.0 | 0.0 | 0.00 | 0.00 | 0.00 | 76 | 1010.1 |
| 20260506000104 | 3 | 0 | 0.0 | 1.6 | 0.00 | 0.00 | 0.00 | 76 | 1010.1 |
| 20260505234555 | 3 | 0 | 0.0 | 1.6 | 0.00 | 0.00 | 0.00 | 74 | 1010.1 |
| 20260505233058 | 4 | 0 | 0.0 | 3.2 | 0.00 | 0.00 | 0.00 | 74 | 1010.0 |
| 20260505231555 | 4 | 319 | 0.0 | 1.6 | 0.00 | 0.00 | 0.00 | 74 | 1010.0 |
| 20260505230121 | 5 | 0 | 0.0 | 4.8 | 0.00 | 0.00 | 0.00 | 73 | 1009.9 |
| 20260505224556 | 5 | 0 | 0.0 | 3.2 | 0.00 | 0.00 | 0.00 | 73 | 1009.8 |
| 20260505223058 | 6 | 336 | 0.0 | 3.2 | 0.00 | 0.00 | 0.00 | 70 | 1009.7 |
| 20260505221603 | 6 | 309 | 0.0 | 6.4 | 0.00 | 0.00 | 0.00 | 69 | 1009.7 |
| 20260505214604 | 7 | 349 | 3.2 | 8.0 | 0.00 | 0.00 | 0.00 | 69 | 1009.2 |
| 20260505213055 | 7 | 355 | 3.2 | 14.5 | 0.00 | 0.00 | 0.00 | 69 | 1009.0 |
| 20260505211605 | 8 | 326 | 3.2 | 9.7 | 0.00 | 0.00 | 0.00 | 72 | 1008.9 |
| 20260505210107 | 8 | 336 | 3.2 | 9.7 | 0.00 | 0.00 | 0.00 | 72 | 1008.8 |
| 20260505204602 | 8 | 294 | 4.8 | 12.9 | 0.00 | 0.00 | 0.00 | 71 | 1008.5 |
| 20260505203107 | 8 | 291 | 1.6 | 11.3 | 0.00 | 0.00 | 0.00 | 71 | 1008.3 |
| 20260505201557 | 9 | 312 | 4.8 | 14.5 | 0.00 | 0.00 | 0.00 | 69 | 1008.3 |
| 20260505200109 | 9 | 271 | 4.8 | 14.5 | 0.00 | 0.00 | 0.00 | 68 | 1008.1 |
| 20260505194556 | 9 | 252 | 6.4 | 12.9 | 0.00 | 0.00 | 0.00 | 67 | 1007.9 |
| 20260505193103 | 10 | 267 | 6.4 | 12.9 | 0.00 | 0.00 | 0.00 | 66 | 1008.0 |
| 20260505191602 | 10 | 282 | 3.2 | 9.7 | 0.00 | 0.00 | 0.00 | 65 | 1007.8 |
| 20260505190054 | 10 | 270 | 4.8 | 12.9 | 0.00 | 0.00 | 0.00 | 64 | 1007.7 |
| 20260505184558 | 10 | 259 | 3.2 | 9.7 | 0.00 | 0.00 | 0.00 | 63 | 1007.7 |
| 20260505183056 | 10 | 284 | 3.2 | 12.9 | 0.00 | 0.00 | 0.00 | 60 | 1007.7 |
| 20260505181557 | 10 | 306 | 6.4 | 17.7 | 0.00 | 0.00 | 0.00 | 58 | 1007.4 |
| 20260505180058 | 11 | 261 | 11.3 | 16.1 | 0.00 | 0.00 | 0.00 | 56 | 1007.3 |
| 20260505174603 | 11 | 293 | 8.0 | 17.7 | 0.00 | 0.00 | 0.00 | 55 | 1007.2 |
| 20260505173057 | 12 | 298 | 9.7 | 17.7 | 0.00 | 0.00 | 0.00 | 52 | 1007.1 |
| 20260505171555 | 12 | 355 | 6.4 | 17.7 | 0.00 | 0.00 | 0.00 | 51 | 1007.0 |
| 20260505170056 | 12 | 321 | 1.6 | 17.7 | 0.00 | 0.00 | 0.00 | 53 | 1006.9 |
| 20260505164600 | 13 | 270 | 8.0 | 17.7 | 0.00 | 0.00 | 0.00 | 53 | 1006.8 |
| 20260505163059 | 13 | 309 | 9.7 | 17.7 | 0.00 | 0.00 | 0.00 | 52 | 1006.7 |
| 20260505161607 | 14 | 311 | 6.4 | 17.7 | 0.00 | 0.00 | 0.00 | 53 | 1006.8 |
| 20260505153055 | 16 | 296 | 11.3 | 22.5 | 0.00 | 0.00 | 0.00 | 52 | 1006.3 |
| 20260505151554 | 16 | 324 | 9.7 | 20.9 | 0.00 | 0.00 | 0.00 | 52 | 1006.0 |
| 20260505150105 | 17 | 304 | 8.0 | 20.9 | 0.00 | 0.00 | 0.00 | 50 | 1005.9 |
| 20260505130115 | 19 | 281 | 16.1 | 29.0 | 0.00 | 0.00 | 0.00 | 40 | 1005.8 |
| 20260505124608 | 18 | 247 | 9.7 | 22.5 | 0.00 | 0.00 | 0.00 | 47 | 1005.6 |